User: anonymous   Login
Location: Unspecified
(42.0334°N, 93.6656°W)
Time: 15:44:50
(UTC-06:00)
Language:

Iridium 63 - Orbit

View from above orbital plane
View from above orbital plane
View from above satellite
View from above satellite

Ground track
Ground track

The orbit data is extracted from the following two-line orbital elements,

1 25286U 98021B   17349.56896632  .00000114  00000-0  33212-4 0  9993
2 25286  86.3987 148.5529 0001981  95.6748 334.4122 14.34700471 31057
Epoch (UTC): 15 December 2017 13:39:18
Eccentricity: 0.0001981
inclination: 86.3987°
perigee height: 774 km
apogee height: 777 km
right ascension of ascending node: 148.5529°
argument of perigee: 95.6748°
revolutions per day: 14.34700471
mean anomaly at epoch: 334.4122°
orbit number at epoch: 3105

The dashed part of the orbit path shows where the satellite is in the earth's shadow,  

DLR